Starlink 31231

operational
NORAD ID: 59034 Int'l Des: 2024-038 Owner: SPXS Country: US Constellation: starlink
LEOCIRCULAR

关于 Starlink 31231

正在加载描述...

实时位置

正在加载3D地球...

即将过境

高度历史

Altitude vs Time

uPlot chart will show altitude changes over time

两行轨道根数

1 59034U 24038M 25259.47232040 -.00006441 00000-0 -22440-3 0 9995
2 59034 43.0032 287.4810 0001458 276.3906 83.6780 15.27627291 88040
Epoch: Sep 16, 2025 • Age: 36 hours

当前状态

高度 495.4 km
速度 7.62 km/s
星下点 -43.15°S, 155.04°W
发射日期 Feb 25, 2024
运行时间 1.5 years
类型 internet

技术详情

分类 Payload
质量 730.00 kg
干质量 700.00 kg
总质量 730.00 kg
长度 0.30 m
直径 4.10 m
跨度 29.00 m
形状 Box + pan
制造商 SPXS
平台类型 Starlink V2M
阶段状态 In Orbit
所有者/国家 SPXS/US

大型星座

Loading constellations...